Time,TemperatureF,DewpointF,PressureIn,WindDirection,WindDirectionDegrees,WindSpeedMPH,WindSpeedGustMPH,Humidity,HourlyPrecipIn,Conditions,Clouds,dailyrainin,SoftwareType,DateUTC
2013-02-13 00:22:00,27.0,-99.9,29.82,SW,236,6.0,8.0,-999,-99.99,,,-99.99,,2013-02-13 05:22:00,
2013-02-13 01:22:00,28.0,-99.9,29.80,WSW,240,8.0,11.0,-999,-99.99,,,-99.99,,2013-02-13 06:22:00,
2013-02-13 01:52:00,28.0,-99.9,29.79,WSW,240,8.0,12.0,-999,-99.99,,,-99.99,,2013-02-13 06:52:00,
2013-02-13 02:11:00,28.0,-99.9,29.78,SW,234,6.0,11.0,-999,-99.99,,,-99.99,,2013-02-13 07:11:00,
2013-02-13 02:52:00,28.0,-99.9,29.77,SW,229,6.0,8.0,-999,-99.99,,,-99.99,,2013-02-13 07:52:00,
2013-02-13 03:22:00,28.0,-99.9,29.76,SW,216,6.0,7.0,-999,-99.99,,,-99.99,,2013-02-13 08:22:00,
2013-02-13 03:52:00,26.0,-99.9,29.75,SSE,157,6.0,8.0,-999,-99.99,,,-99.99,,2013-02-13 08:52:00,
2013-02-13 04:21:00,26.0,-99.9,29.74,SSW,195,6.0,10.0,-999,-99.99,,,-99.99,,2013-02-13 09:21:00,
2013-02-13 04:52:00,27.0,-99.9,29.73,SSW,196,8.0,11.0,-999,-99.99,,,-99.99,,2013-02-13 09:52:00,
2013-02-13 05:22:00,28.0,-99.9,29.73,SSW,195,11.0,14.0,-999,-99.99,,,-99.99,,2013-02-13 10:22:00,
2013-02-13 05:52:00,28.0,-99.9,29.72,SSW,200,9.0,12.0,-999,-99.99,,,-99.99,,2013-02-13 10:52:00,
2013-02-13 06:22:00,28.0,-99.9,29.72,SSW,203,9.0,13.0,-999,-99.99,,,-99.99,,2013-02-13 11:22:00,
2013-02-13 06:52:00,28.0,-99.9,29.71,SSW,204,8.0,12.0,-999,-99.99,,,-99.99,,2013-02-13 11:52:00,
2013-02-13 07:52:00,29.0,-99.9,29.70,SSW,203,6.0,8.0,-999,-99.99,,,-99.99,,2013-02-13 12:52:00,
2013-02-13 08:22:00,29.0,-99.9,29.69,SSW,206,6.0,10.0,-999,-99.99,,,-99.99,,2013-02-13 13:22:00,
2013-02-13 09:22:00,30.0,-99.9,29.68,SW,218,8.0,11.0,-999,-99.99,,,-99.99,,2013-02-13 14:22:00,
2013-02-13 09:52:00,31.0,-99.9,29.68,SW,220,7.0,10.0,-999,-99.99,,,-99.99,,2013-02-13 14:52:00,
2013-02-13 10:32:00,33.0,-99.9,29.67,North,-999,-999.0,-999.0,-999,-99.99,,,-99.99,,2013-02-13 15:32:00,
2013-02-13 10:42:00,33.0,-99.9,29.67,North,-999,-999.0,-999.0,-999,-99.99,,,-99.99,,2013-02-13 15:42:00,
2013-02-13 10:52:00,34.0,-99.9,29.67,WSW,251,12.0,17.0,-999,-99.99,,,-99.99,,2013-02-13 15:52:00,
2013-02-13 11:02:00,34.0,-99.9,29.67,North,-999,-999.0,-999.0,-999,-99.99,,,-99.99,,2013-02-13 16:02:00,
2013-02-13 11:12:00,34.0,-99.9,29.67,North,-999,-999.0,-999.0,-999,-99.99,,,-99.99,,2013-02-13 16:12:00,
2013-02-13 11:21:00,34.0,-99.9,29.67,WSW,242,17.0,23.0,-999,-99.99,,,-99.99,,2013-02-13 16:21:00,
2013-02-13 11:32:00,34.0,-99.9,29.67,North,-999,-999.0,-999.0,-999,-99.99,,,-99.99,,2013-02-13 16:32:00,
2013-02-13 11:42:00,34.0,-99.9,29.67,North,-999,-999.0,-999.0,-999,-99.99,,,-99.99,,2013-02-13 16:42:00,
2013-02-13 11:52:00,34.0,-99.9,29.67,WSW,248,15.0,23.0,-999,-99.99,,,-99.99,,2013-02-13 16:52:00,
2013-02-13 12:02:00,34.0,-99.9,29.67,North,-999,-999.0,-999.0,-999,-99.99,,,-99.99,,2013-02-13 17:02:00,
2013-02-13 12:11:00,35.0,-99.9,29.67,North,-999,-999.0,-999.0,-999,-99.99,,,-99.99,,2013-02-13 17:11:00,
2013-02-13 12:21:00,35.0,-99.9,29.67,West,262,14.0,20.0,-999,-99.99,,,-99.99,,2013-02-13 17:21:00,
2013-02-13 12:32:00,34.0,-99.9,29.67,North,-999,-999.0,-999.0,-999,-99.99,,,-99.99,,2013-02-13 17:32:00,
2013-02-13 12:42:00,34.0,-99.9,29.67,North,-999,-999.0,-999.0,-999,-99.99,,,-99.99,,2013-02-13 17:42:00,
2013-02-13 12:52:00,34.0,-99.9,29.66,West,261,15.0,20.0,-999,-99.99,,,-99.99,,2013-02-13 17:52:00,
2013-02-13 13:02:00,34.0,-99.9,29.66,North,-999,-999.0,-999.0,-999,-99.99,,,-99.99,,2013-02-13 18:02:00,
2013-02-13 13:11:00,35.0,-99.9,29.66,North,-999,-999.0,-999.0,-999,-99.99,,,-99.99,,2013-02-13 18:11:00,
2013-02-13 13:23:00,35.0,-99.9,29.65,WSW,258,15.0,20.0,-999,-99.99,,,-99.99,,2013-02-13 18:23:00,
2013-02-13 13:32:00,35.0,-99.9,29.65,North,-999,-999.0,-999.0,-999,-99.99,,,-99.99,,2013-02-13 18:32:00,
2013-02-13 13:42:00,35.0,-99.9,29.65,North,-999,-999.0,-999.0,-999,-99.99,,,-99.99,,2013-02-13 18:42:00,
2013-02-13 13:52:00,35.0,-99.9,29.65,North,-999,-999.0,-999.0,-999,-99.99,,,-99.99,,2013-02-13 18:52:00,
2013-02-13 14:02:00,35.0,-99.9,29.65,North,-999,-999.0,-999.0,-999,-99.99,,,-99.99,,2013-02-13 19:02:00,
2013-02-13 14:11:00,35.0,-99.9,29.65,North,-999,-999.0,-999.0,-999,-99.99,,,-99.99,,2013-02-13 19:11:00,
2013-02-13 14:21:00,35.0,-99.9,29.65,West,268,14.0,20.0,-999,-99.99,,,-99.99,,2013-02-13 19:21:00,
2013-02-13 14:32:00,35.0,-99.9,29.65,North,-999,-999.0,-999.0,-999,-99.99,,,-99.99,,2013-02-13 19:32:00,
2013-02-13 14:42:00,35.0,-99.9,29.65,North,-999,-999.0,-999.0,-999,-99.99,,,-99.99,,2013-02-13 19:42:00,
2013-02-13 14:52:00,35.0,-99.9,29.65,West,270,16.0,21.0,-999,-99.99,,,-99.99,,2013-02-13 19:52:00,
2013-02-13 15:02:00,35.0,-99.9,29.65,North,-999,-999.0,-999.0,-999,-99.99,,,-99.99,,2013-02-13 20:02:00,
2013-02-13 15:11:00,35.0,-99.9,29.65,North,-999,-999.0,-999.0,-999,-99.99,,,-99.99,,2013-02-13 20:11:00,
2013-02-13 15:22:00,35.0,-99.9,29.65,North,-999,-999.0,-999.0,-999,-99.99,,,-99.99,,2013-02-13 20:22:00,
2013-02-13 15:32:00,35.0,-99.9,29.65,North,-999,-999.0,-999.0,-999,-99.99,,,-99.99,,2013-02-13 20:32:00,
2013-02-13 15:42:00,34.0,-99.9,29.66,North,-999,-999.0,-999.0,-999,-99.99,,,-99.99,,2013-02-13 20:42:00,
2013-02-13 15:52:00,34.0,-99.9,29.66,West,266,15.0,21.0,-999,-99.99,,,-99.99,,2013-02-13 20:52:00,
2013-02-13 16:02:00,34.0,-99.9,29.66,North,-999,-999.0,-999.0,-999,-99.99,,,-99.99,,2013-02-13 21:02:00,
2013-02-13 16:11:00,34.0,-99.9,29.66,North,-999,-999.0,-999.0,-999,-99.99,,,-99.99,,2013-02-13 21:11:00,
2013-02-13 16:22:00,34.0,-99.9,29.66,West,271,16.0,20.0,-999,-99.99,,,-99.99,,2013-02-13 21:22:00,
2013-02-13 16:32:00,34.0,-99.9,29.67,North,-999,-999.0,-999.0,-999,-99.99,,,-99.99,,2013-02-13 21:32:00,
2013-02-13 16:43:00,34.0,-99.9,29.67,West,272,12.0,19.0,-999,-99.99,,,-99.99,,2013-02-13 21:43:00,
2013-02-13 16:52:00,34.0,-99.9,29.67,North,-999,-999.0,-999.0,-999,-99.99,,,-99.99,,2013-02-13 21:52:00,
2013-02-13 17:02:00,34.0,-99.9,29.66,North,-999,-999.0,-999.0,-999,-99.99,,,-99.99,,2013-02-13 22:02:00,
2013-02-13 17:11:00,34.0,-99.9,29.66,North,-999,-999.0,-999.0,-999,-99.99,,,-99.99,,2013-02-13 22:11:00,
2013-02-13 17:21:00,34.0,-99.9,29.66,WSW,241,11.0,15.0,-999,-99.99,,,-99.99,,2013-02-13 22:21:00,
2013-02-13 17:32:00,34.0,-99.9,29.67,North,-999,-999.0,-999.0,-999,-99.99,,,-99.99,,2013-02-13 22:32:00,
2013-02-13 17:42:00,34.0,-99.9,29.66,North,-999,-999.0,-999.0,-999,-99.99,,,-99.99,,2013-02-13 22:42:00,
2013-02-13 17:52:00,34.0,-99.9,29.67,WSW,252,10.0,18.0,-999,-99.99,,,-99.99,,2013-02-13 22:52:00,
2013-02-13 18:02:00,33.0,-99.9,29.67,North,-999,-999.0,-999.0,-999,-99.99,,,-99.99,,2013-02-13 23:02:00,
2013-02-13 18:12:00,33.0,-99.9,29.67,West,267,11.0,15.0,-999,-99.99,,,-99.99,,2013-02-13 23:12:00,
2013-02-13 18:22:00,33.0,-99.9,29.67,North,-999,-999.0,-999.0,-999,-99.99,,,-99.99,,2013-02-13 23:22:00,
2013-02-13 18:32:00,33.0,-99.9,29.67,North,-999,-999.0,-999.0,-999,-99.99,,,-99.99,,2013-02-13 23:32:00,
2013-02-13 18:42:00,33.0,-99.9,29.67,North,-999,-999.0,-999.0,-999,-99.99,,,-99.99,,2013-02-13 23:42:00,
2013-02-13 18:53:00,33.0,-99.9,29.67,WSW,251,8.0,13.0,-999,-99.99,,,-99.99,,2013-02-13 23:53:00,
2013-02-13 19:02:00,33.0,-99.9,29.67,North,-999,-999.0,-999.0,-999,-99.99,,,-99.99,,2013-02-14 00:02:00,
2013-02-13 19:12:00,32.0,-99.9,29.67,North,-999,-999.0,-999.0,-999,-99.99,,,-99.99,,2013-02-14 00:12:00,
2013-02-13 19:22:00,-999.0,-99.9,29.67,West,268,7.0,10.0,-999,-99.99,,,-99.99,,2013-02-14 00:22:00,
2013-02-13 19:43:00,-999.0,-99.9,29.67,WSW,240,4.0,6.0,-999,-99.99,,,-99.99,,2013-02-14 00:43:00,
2013-02-13 20:22:00,30.0,-99.9,29.68,SE,125,3.0,3.0,-999,-99.99,,,-99.99,,2013-02-14 01:22:00,
2013-02-13 20:52:00,29.0,-99.9,29.68,SE,146,4.0,4.0,-999,-99.99,,,-99.99,,2013-02-14 01:52:00,
2013-02-13 21:21:00,30.0,-99.9,29.68,SSE,157,2.0,2.0,-999,-99.99,,,-99.99,,2013-02-14 02:21:00,
2013-02-13 22:12:00,29.0,-99.9,29.67,SE,146,1.0,2.0,-999,-99.99,,,-99.99,,2013-02-14 03:12:00,
2013-02-13 22:52:00,29.0,-99.9,29.68,South,174,3.0,3.0,-999,-99.99,,,-99.99,,2013-02-14 03:52:00,
2013-02-13 23:21:00,29.0,-99.9,29.67,SSE,164,4.0,5.0,-999,-99.99,,,-99.99,,2013-02-14 04:21:00,
2013-02-13 23:52:00,30.0,-99.9,29.67,South,169,3.0,3.0,-999,-99.99,,,-99.99,,2013-02-14 04:52:00,